Wind_Speed
6 6 6 6 7 7 7 7 7 7 7 7 7 7 6 6 6 7 8 8 8 9 9 9 9 8 9 9 10 11 11 11 10 10 11 11 10 10 9 9 10 10 11 9 9 9 9 9 8 6 6 4 1 3 5 5 6 6 5 6 7 2 4 9 18 22 22 24 24 22 21 19 22 23 23 21 17 16 13 10 11 11 9 12 14 15 16 17
7 7 7 7 7 7 7 7 7 7 7 7 7 7 7 7 6 6 7 7 8 8 9 9 9 8 8 7 8 9 10 10 10 11 10 10 10 10 10 9 9 10 11 11 10 10 10 11 10 9 9 6 2 2 5 4 6 6 4 5 6 3 2 2 11 20 21 23 24 23 22 18 21 24 25 24 19 18 17 15 14 13 14 18 18 15 15 15
7 7 7 7 7 7 7 7 7 7 8 8 8 8 8 8 8 7 7 7 7 7 8 9 9 9 8 7 6 7 8 9 10 11 11 10 10 9 10 10 10 10 11 12 11 12 12 13 12 11 12 9 6 2 2 2 4 6 5 6 6 3 1 2 5 18 23 22 24 24 21 19 23 25 27 26 21 19 20 17 16 17 18 21 20 17 15 14
8 7 7 7 8 8 8 8 8 8 8 9 9 9 8 8 8 8 8 8 7 7 7 8 9 9 8 7 6 6 6 7 9 10 10 10 10 10 10 10 11 11 12 12 12 13 13 13 13 12 12 9 9 4 6 5 6 8 7 6 5 4 4 5 3 15 24 22 24 24 21 20 23 23 25 26 23 21 21 17 12 14 20 22 21 18 15 15
8 8 8 8 8 9 9 9 9 9 9 9 9 9 8 9 9 9 9 9 9 8 8 8 7 8 8 8 6 6 5 5 6 7 9 9 10 10 10 10 11 12 13 13 13 13 13 14 15 13 9 7 9 6 6 8 9 9 7 8 6 5 6 7 5 14 24 24 25 24 21 21 22 21 24 25 24 23 19 13 9 11 18 21 20 18 15 15
8 8 8 9 9 9 9 9 9 9 9 9 9 9 9 9 9 9 9 9 9 9 9 9 9 8 7 7 6 5 4 4 5 6 7 8 10 10 9 10 11 12 12 13 13 14 14 14 15 12 10 8 9 6 5 7 10 10 8 10 9 8 10 9 6 14 25 26 27 24 22 21 22 23 24 24 23 22 16 11 10 9 13 18 18 17 15 14
9 9 9 9 9 9 9 9 9 10 10 10 10 10 10 9 9 9 9 9 9 9 10 10 10 9 8 6 5 5 4 5 8 7 6 6 8 9 10 10 11 13 12 13 14 13 15 13 13 13 14 11 9 4 5 5 9 10 8 11 11 11 12 10 8 17 26 27 28 28 25 23 25 26 23 23 24 23 18 13 12 9 11 17 16 16 15 13
9 9 9 9 9 9 9 10 10 10 10 10 10 10 10 10 9 9 9 9 9 10 10 10 10 10 9 7 5 4 5 7 9 7 6 7 7 9 11 11 11 13 13 14 14 14 15 13 14 16 15 10 8 2 6 7 9 10 10 10 10 10 10 8 8 17 26 28 28 28 27 27 27 25 20 20 22 24 21 17 15 11 13 16 16 16 16 14
9 8 8 8 9 9 9 9 9 9 10 10 10 10 10 10 10 9 9 9 10 10 10 10 10 10 10 8 6 4 4 4 7 6 6 7 8 8 10 11 12 13 14 15 15 16 15 14 16 16 12 8 6 2 8 10 10 10 8 7 7 8 6 3 7 16 23 27 28 26 25 28 28 23 19 19 22 24 23 19 17 14 15 17 16 17 15 14
9 8 8 8 9 9 9 9 9 9 9 9 9 10 10 10 10 10 10 10 10 10 10 10 10 10 10 9 6 3 3 5 6 6 3 4 6 7 8 10 11 14 15 16 16 16 14 15 17 16 12 6 3 6 9 11 13 12 9 8 8 8 3 4 11 17 22 25 27 25 24 28 28 25 24 22 22 24 21 18 17 16 17 17 17 16 15 13
8 8 8 8 8 8 8 8 9 9 9 9 9 10 10 10 10 10 10 11 11 10 10 10 10 11 10 10 6 3 4 5 7 7 2 1 3 7 8 9 11 13 16 16 16 15 15 16 18 17 12 4 4 7 5 6 10 12 9 9 6 4 0 6 12 17 21 23 23 22 24 28 28 25 25 23 22 22 19 16 17 18 18 17 17 16 14 13
8 7 7 7 7 8 8 8 9 9 9 9 9 10 10 10 10 11 11 11 11 10 11 11 11 12 13 11 8 4 5 6 7 9 3 3 3 6 9 9 11 14 16 16 15 16 18 20 21 17 11 5 2 5 3 2 4 6 6 6 2 2 2 6 10 16 20 21 22 23 25 28 29 26 25 24 21 21 17 14 18 19 18 17 17 14 13 12
7 7 6 6 7 7 7 8 9 9 9 9 10 11 11 11 12 12 12 11 12 12 13 13 14 15 16 14 11 7 4 4 5 9 5 3 4 6 10 11 11 14 16 16 15 18 21 23 22 18 11 7 3 3 2 3 3 5 4 3 1 1 4 7 9 15 18 21 24 26 26 27 30 28 28 28 25 21 17 14 17 18 17 18 16 14 13 11
7 6 6 6 6 7 8 8 9 9 9 9 10 11 12 13 13 13 12 12 13 14 14 14 14 16 19 18 15 12 8 7 5 6 3 2 4 6 11 12 12 15 17 17 16 20 23 24 23 19 13 10 7 4 2 2 5 6 4 3 1 1 5 9 8 12 16 19 22 25 26 28 30 28 28 30 28 22 17 14 17 18 17 19 17 15 15 13
6 6 5 5 6 7 8 8 9 9 9 10 11 11 12 13 13 14 13 14 15 15 14 13 13 14 18 18 17 18 16 14 11 5 1 5 8 7 10 12 12 15 18 18 18 22 24 23 24 20 15 14 11 6 5 5 8 9 6 5 3 1 5 8 8 12 16 17 19 20 23 27 29 29 28 29 29 22 16 14 18 18 18 20 20 18 17 16
6 5 5 5 5 7 8 8 9 9 9 10 11 11 11 12 14 14 14 14 16 18 16 14 11 10 15 20 20 23 23 18 14 7 5 8 11 9 9 10 12 16 19 20 21 23 23 22 22 21 18 18 15 9 7 8 11 11 9 7 5 5 5 9 11 12 15 17 18 17 21 27 30 31 29 28 30 23 16 16 20 20 18 21 24 23 19 18
5 5 4 4 5 6 7 8 8 9 10 10 10 9 8 10 13 14 16 16 16 18 19 17 12 7 12 21 19 20 23 20 16 7 8 10 10 7 5 4 8 17 20 22 23 21 20 20 20 21 20 20 18 13 11 13 17 15 12 10 7 6 5 9 12 13 15 18 19 15 18 27 29 30 29 28 30 24 17 20 22 22 20 22 25 25 22 21
5 4 4 4 4 5 7 8 9 9 10 10 9 8 7 6 8 10 11 14 16 17 18 19 16 9 11 19 17 17 20 20 15 4 8 9 8 4 3 2 5 15 21 22 22 19 19 18 18 19 20 21 20 17 18 19 18 17 16 13 9 8 6 6 9 12 16 19 20 17 17 23 27 29 30 30 31 25 20 24 24 22 21 22 25 26 24 22
4 4 3 3 4 5 7 8 10 10 10 11 9 9 8 5 5 6 5 7 12 15 15 16 16 11 12 18 17 19 20 14 12 7 4 6 8 5 5 6 5 10 16 19 20 18 17 14 14 17 21 23 22 22 24 18 8 8 12 12 9 9 8 6 7 11 16 19 22 21 20 23 27 30 32 32 31 27 26 28 26 24 23 22 25 27 24 23
4 3 3 2 3 4 6 9 10 10 10 9 8 8 8 7 7 8 5 5 7 11 14 13 11 8 10 16 16 19 18 8 9 12 7 5 7 5 5 8 8 7 11 14 16 16 14 12 12 16 21 25 25 25 23 16 6 3 7 10 10 8 7 6 8 11 15 18 23 24 22 23 28 32 34 34 32 29 29 30 29 27 25 22 24 26 24 23
3 3 2 2 2 3 6 8 9 9 9 8 9 10 12 12 12 12 10 8 7 9 11 10 7 4 6 10 12 15 13 4 8 12 9 7 6 7 6 7 6 6 10 10 10 10 11 13 14 15 18 23 26 24 19 17 12 9 11 13 13 11 7 6 9 10 13 17 21 25 23 22 29 35 35 35 34 33 32 30 30 30 26 22 21 23 23 23
3 2 2 1 1 3 5 7 7 8 8 8 10 11 13 14 14 14 12 9 8 10 11 9 6 4 5 8 9 10 9 7 9 9 9 7 1 6 6 5 4 3 6 8 9 9 11 13 12 11 14 19 24 24 20 16 13 13 14 16 16 13 9 11 12 11 13 17 21 24 25 23 26 32 33 35 37 36 34 32 31 30 28 25 21 22 23 22
3 2 2 1 1 2 4 5 6 6 6 7 8 9 11 12 12 12 12 8 7 10 10 8 7 6 7 8 7 8 9 10 9 6 9 8 3 8 6 5 3 2 3 5 9 10 12 9 6 8 14 17 20 21 18 14 14 16 16 17 16 14 12 12 14 15 14 16 19 23 25 23 21 25 29 34 39 38 36 35 33 32 30 27 23 22 23 22
3 2 1 1 1 2 3 3 4 3 4 5 8 9 10 11 11 12 11 5 3 6 7 7 7 7 7 7 7 8 6 9 9 7 9 4 7 7 5 4 1 3 3 4 7 11 11 7 5 7 14 16 18 17 16 15 17 19 20 20 17 15 13 10 11 15 16 17 18 21 23 23 21 23 25 32 37 37 37 38 35 33 32 30 26 24 24 23
3 2 1 2 2 2 2 2 3 2 3 5 8 10 11 12 12 13 12 5 1 2 2 4 7 8 8 7 9 7 6 8 9 9 6 3 4 1 3 3 5 5 5 6 8 14 13 6 4 9 13 16 16 16 17 17 17 19 23 23 19 17 15 11 10 15 19 20 20 21 17 17 23 25 24 30 37 35 36 40 37 33 35 34 28 27 26 24
2 2 1 2 2 2 2 2 2 1 2 5 8 9 10 11 11 11 10 4 3 3 1 3 6 7 9 9 9 8 5 5 8 10 5 1 4 6 4 4 7 6 6 7 10 16 14 8 9 12 12 15 16 17 19 16 16 19 22 22 21 19 15 13 12 14 20 18 19 24 15 8 20 26 23 28 34 33 34 39 39 36 36 35 30 30 29 25
2 2 0 2 2 2 2 2 2 2 4 6 6 7 8 8 9 8 6 2 3 6 6 6 6 5 7 9 9 10 8 4 6 11 8 6 7 7 6 5 7 8 5 7 13 14 12 9 10 12 13 15 16 19 18 15 15 17 20 23 24 19 15 16 13 12 16 14 15 25 18 7 16 26 24 27 31 34 35 38 40 39 37 35 32 32 30 26
3 2 1 2 2 2 3 2 3 5 5 4 5 6 6 7 8 7 6 2 3 6 5 6 8 7 5 6 6 7 8 4 4 11 12 8 7 6 7 6 9 10 6 11 16 11 11 11 10 11 13 15 17 18 15 13 14 12 12 19 20 15 15 17 14 13 15 15 17 26 21 7 11 22 25 28 33 36 39 39 40 39 37 35 33 32 31 29
3 2 1 2 3 2 2 3 4 5 4 3 4 5 5 7 8 6 4 2 3 5 5 5 9 10 8 8 5 3 4 1 4 10 10 7 6 6 6 6 9 11 8 12 14 9 10 12 9 10 14 16 17 16 13 12 14 11 10 12 11 13 16 16 16 18 16 13 16 24 25 11 5 16 25 30 33 37 41 39 37 37 36 35 35 32 32 32
3 2 1 2 3 2 2 4 5 4 3 3 2 4 5 7 8 4 2 3 2 6 7 5 9 11 9 9 4 3 2 2 4 9 8 8 5 3 5 6 6 10 8 8 11 10 11 11 10 10 12 14 13 14 15 13 13 15 14 12 12 13 18 17 16 19 13 8 15 23 27 16 4 13 27 27 18 21 36 41 39 40 38 37 37 35 33 34
3 2 1 2 3 3 5 6 6 6 3 2 1 3 5 7 8 3 2 5 4 6 9 6 7 9 10 8 2 5 6 7 6 6 7 9 6 3 6 9 8 10 11 10 11 9 8 10 10 9 9 10 9 11 15 14 15 18 15 14 16 14 14 12 10 12 6 5 14 21 26 17 6 12 20 17 7 8 26 37 40 43 42 40 39 38 37 35
2 2 1 2 3 5 6 8 8 6 5 3 1 5 5 5 8 7 6 7 6 7 12 11 9 6 7 8 7 7 9 11 8 5 6 7 7 6 6 10 11 11 13 14 12 11 8 4 3 5 9 11 10 11 15 13 13 16 17 18 13 7 2 3 3 4 7 10 10 15 25 18 9 11 11 11 11 11 18 25 32 40 41 41 42 39 37 36
2 1 2 2 3 5 7 8 8 7 6 4 1 5 8 6 7 9 10 10 9 8 12 15 8 5 5 7 7 5 5 8 8 6 6 4 4 6 6 7 9 9 12 12 12 15 10 3 3 1 7 11 11 13 16 12 7 14 24 26 17 8 1 4 2 1 8 14 14 15 22 13 8 8 8 11 12 13 15 17 24 34 38 39 41 39 36 37
2 1 2 2 4 6 7 9 9 8 7 4 2 5 9 8 7 9 9 11 12 7 7 14 8 6 5 5 6 7 6 7 8 6 7 5 3 4 5 4 5 8 9 7 9 14 9 3 2 5 4 9 13 16 16 11 6 13 22 22 22 21 11 5 5 6 5 2 5 17 18 8 7 5 6 10 11 12 15 16 19 28 37 38 39 39 38 38
2 2 2 2 4 6 8 9 10 9 7 4 1 4 7 7 7 8 8 12 13 5 7 14 8 6 7 5 5 8 6 7 9 9 9 8 4 1 1 4 7 8 6 6 10 11 11 8 1 2 5 8 14 17 18 15 7 8 14 14 18 22 17 10 8 9 8 9 10 18 13 8 11 8 8 11 13 15 16 18 20 23 33 39 40 40 39 38
2 1 1 1 2 5 8 9 10 8 7 4 2 3 5 7 6 6 10 13 10 7 12 13 7 6 8 7 6 7 6 6 9 10 9 7 2 6 3 9 11 7 4 9 12 8 11 10 6 6 7 9 12 14 17 17 9 6 10 10 10 12 13 11 5 2 7 8 8 16 10 8 11 9 11 14 14 17 18 20 23 21 28 37 39 40 40 39
1 1 2 2 1 4 7 9 9 8 6 3 1 2 5 7 4 7 14 13 5 7 11 10 7 7 7 8 8 9 8 7 6 8 7 5 2 4 4 9 7 8 7 9 9 6 12 14 10 9 8 10 11 12 12 12 10 9 10 8 6 9 9 8 3 2 3 3 6 14 10 10 12 8 12 16 14 18 21 22 23 21 26 33 36 38 39 39
0 1 6 7 4 3 4 7 8 7 5 1 2 3 6 6 5 7 16 11 4 6 9 7 8 8 7 9 7 7 9 6 5 7 8 6 2 1 7 4 3 11 11 7 7 6 12 14 11 7 5 8 12 12 9 8 10 14 14 8 4 6 8 7 4 0 1 1 2 6 7 11 17 12 13 16 14 16 20 21 22 23 25 29 31 34 37 39
3 7 12 11 10 6 2 5 6 6 4 1 2 3 7 6 4 5 13 11 6 6 8 8 7 6 9 8 5 7 8 5 5 7 7 5 2 2 7 5 5 11 10 6 7 7 8 9 8 6 5 4 3 1 7 4 6 8 12 12 10 9 8 8 9 6 3 2 2 2 3 10 17 14 12 13 12 15 18 18 19 21 24 26 28 30 34 38
6 10 12 10 10 9 3 4 7 5 3 2 3 3 6 7 3 2 9 9 6 6 7 8 6 6 6 6 4 8 9 7 6 7 7 4 1 1 3 6 8 7 7 9 10 6 5 7 9 12 9 8 9 11 13 10 4 3 4 9 11 11 12 9 10 13 8 2 3 4 2 10 18 15 12 12 12 14 16 14 13 15 20 24 25 28 31 35
6 9 8 6 6 8 6 1 4 2 3 2 4 7 8 7 4 4 7 7 4 6 8 7 6 5 4 5 5 4 6 5 5 6 6 6 4 2 3 6 8 4 6 12 11 9 8 8 12 14 10 9 8 7 7 8 10 8 11 16 14 10 12 8 7 13 14 7 7 8 3 10 19 17 14 13 12 13 14 13 12 12 15 20 22 24 27 30
8 9 5 3 3 1 4 4 2 5 7 5 6 11 10 7 6 5 4 3 2 4 6 6 5 2 3 5 3 2 6 7 4 4 5 6 7 4 3 5 5 3 9 12 9 9 10 9 12 14 13 14 12 6 5 7 8 8 14 18 10 9 11 8 6 8 14 12 11 12 5 9 18 17 16 17 14 14 14 14 13 12 14 16 18 20 22 25
10 8 3 2 4 4 6 8 6 8 8 6 9 14 13 10 11 9 6 4 3 3 3 6 5 1 4 5 3 4 5 4 2 3 4 3 2 3 3 2 3 4 8 11 9 9 9 9 11 14 16 18 14 5 2 2 7 8 17 21 11 11 13 7 7 5 4 3 6 10 2 7 18 18 17 18 17 15 14 15 15 14 15 16 16 17 19 22
11 8 5 6 6 5 8 7 6 7 7 9 13 16 15 11 12 9 5 5 6 7 7 4 4 1 2 3 2 3 3 1 1 0 2 3 1 1 3 4 4 4 6 10 12 11 8 7 10 12 12 13 10 5 3 5 14 17 19 20 17 15 11 4 6 5 0 5 3 8 4 8 16 17 17 18 17 15 14 15 16 16 16 16 16 16 18 21
11 10 10 11 11 9 7 6 6 7 9 12 14 13 12 6 8 7 5 7 7 6 7 6 3 3 3 3 3 4 3 2 1 2 3 3 3 3 4 4 3 3 6 10 12 13 9 5 6 7 4 3 3 4 9 14 18 20 19 17 18 18 14 7 3 2 2 4 3 7 6 8 13 15 15 16 15 13 13 15 17 16 17 18 18 18 18 20
12 11 13 13 15 14 11 9 10 10 10 13 13 10 9 5 4 6 7 7 5 3 3 4 4 4 5 5 5 3 2 3 3 2 4 6 6 6 6 3 3 5 6 8 10 11 7 2 5 5 2 3 4 4 9 14 14 17 20 19 18 19 17 13 7 4 3 1 2 2 5 8 12 15 15 15 15 15 14 15 16 15 16 18 19 18 18 18
16 14 16 16 15 17 17 15 15 15 13 15 15 12 10 8 6 6 7 6 4 1 2 1 1 3 6 5 4 1 1 3 5 4 5 7 8 8 9 9 7 7 7 7 8 7 4 1 4 5 3 6 7 3 4 8 11 17 19 19 19 18 17 15 11 8 4 3 2 4 10 10 10 16 17 14 13 14 14 15 15 15 14 15 15 15 16 16
21 20 20 18 16 16 18 17 16 17 13 13 16 15 14 11 9 8 10 7 3 4 3 1 1 4 7 3 2 1 2 2 5 7 8 8 10 11 11 11 10 6 5 6 7 5 3 3 4 4 4 5 6 3 4 2 8 15 16 16 17 17 16 14 12 12 6 8 6 8 15 12 11 17 15 11 11 11 13 15 15 15 14 13 13 14 16 16
21 24 23 21 19 17 16 15 15 15 9 7 10 13 13 12 9 5 6 5 4 7 6 3 5 3 5 7 2 2 4 4 5 7 7 7 6 7 7 7 8 7 5 5 8 6 4 4 6 8 6 5 4 0 4 2 4 10 13 15 14 14 13 10 8 11 7 8 10 12 17 14 13 15 12 9 10 9 9 11 11 13 14 14 15 16 16 15
19 24 25 24 22 19 16 14 14 13 7 4 5 7 7 10 9 6 3 4 4 6 5 3 6 7 3 4 4 4 5 3 2 1 3 5 4 2 4 5 5 3 3 3 6 6 5 5 7 7 5 5 5 4 6 4 0 5 11 15 14 11 10 8 6 7 4 5 10 13 17 16 13 13 10 7 5 5 5 7 9 10 12 13 15 16 17 14
17 20 24 26 25 23 20 17 16 15 10 4 3 5 7 10 12 11 9 7 6 4 1 3 5 9 10 6 5 4 1 1 3 4 3 5 3 3 4 4 4 3 3 4 6 4 5 5 4 4 4 5 7 5 4 7 6 4 9 14 16 14 11 10 9 7 3 6 9 13 17 14 11 11 9 7 4 3 5 6 7 8 10 11 12 15 16 14
17 18 21 24 25 25 24 21 19 18 14 7 2 4 7 9 8 12 11 6 7 9 7 6 6 6 10 8 4 4 5 6 7 7 7 7 4 2 2 2 4 4 3 4 5 4 4 4 3 3 4 3 4 4 3 8 7 3 8 12 14 13 10 9 8 6 4 5 5 8 10 8 7 8 7 7 7 5 6 7 7 9 11 11 12 15 16 15
Wind_Direction
7 6 3 1 357 352 349 348 348 346 344 342 341 338 332 327 317 310 306 303 304 302 300 298 294 288 281 275 268 263 258 252 244 238 232 232 228 226 229 214 210 213 208 199 183 185 187 185 179 159 128 112 106 67 79 63 26 340 340 16 23 63 159 181 191 189 188 186 178 180 190 183 173 172 167 168 155 131 140 156 157 166 178 175 168 160 154 151
14 12 10 8 7 3 360 356 353 353 353 354 356 356 353 349 342 332 320 310 305 300 300 297 296 295 291 285 276 268 261 254 246 239 231 229 226 218 221 217 209 210 205 198 187 184 185 185 180 162 141 134 168 73 68 54 12 350 332 5 29 76 104 129 190 195 195 192 184 187 196 181 165 166 163 164 152 144 159 170 172 172 170 167 167 168 159 150
21 18 16 14 13 13 12 8 5 3 3 6 8 8 5 2 0 358 351 340 325 314 305 299 296 295 293 292 284 274 264 255 245 239 233 225 225 217 211 212 208 208 204 197 189 188 190 191 190 175 161 153 152 184 352 17 355 337 315 341 17 41 355 14 193 198 196 195 189 190 198 177 159 163 161 156 152 161 175 180 182 180 174 167 168 172 162 150
25 24 22 20 19 20 19 16 13 12 12 15 14 11 9 6 5 3 2 359 353 343 327 315 305 298 296 293 287 280 269 256 246 241 238 226 222 218 209 205 203 207 204 194 191 194 197 193 194 188 177 165 144 173 282 283 298 303 300 328 359 359 292 291 266 198 195 197 191 190 196 174 159 165 159 152 156 171 187 199 197 180 174 166 166 172 162 153
27 27 27 25 24 24 22 20 17 17 17 17 15 12 10 7 5 3 2 0 358 357 350 343 329 316 305 295 290 286 271 255 253 248 241 231 222 218 209 203 197 205 205 196 191 192 197 189 196 199 180 166 143 158 260 261 268 285 299 317 327 334 303 282 272 203 195 195 192 191 190 171 161 163 155 154 163 175 188 197 186 169 168 164 165 169 160 156
29 30 30 28 28 27 24 24 21 20 18 17 15 11 9 7 6 4 2 0 357 357 356 356 353 345 331 312 297 288 278 249 248 245 233 224 220 218 211 201 195 202 201 195 191 191 194 187 198 194 149 143 144 158 251 252 258 278 297 301 300 312 308 288 258 203 194 193 192 188 183 173 163 156 154 163 173 180 187 177 163 162 164 165 167 166 161 160
30 30 31 31 31 30 28 27 25 24 21 18 15 11 11 9 8 7 5 4 0 358 359 0 360 360 356 338 311 295 279 239 239 237 222 216 210 212 211 202 196 197 194 192 191 192 192 186 192 170 133 131 131 148 273 268 262 275 285 289 292 305 307 289 238 199 192 191 192 187 177 168 159 154 160 175 179 181 186 182 177 175 169 170 168 165 164 160
29 29 30 33 34 35 33 30 28 25 21 16 13 11 9 6 6 4 4 3 0 360 2 4 3 4 4 358 338 303 260 242 253 248 228 221 204 203 205 202 197 190 189 189 188 193 192 185 182 157 128 125 124 130 282 273 261 262 269 286 298 309 310 287 231 196 191 189 189 188 176 160 154 157 167 176 176 178 185 190 192 192 177 172 170 168 168 162
27 28 31 35 37 38 36 32 28 23 20 14 9 6 3 2 359 359 359 359 359 358 359 3 5 7 8 6 354 309 272 273 278 272 253 238 219 206 200 199 196 185 185 187 187 192 188 181 178 159 133 135 145 260 280 266 253 251 261 292 321 332 326 274 201 185 187 187 183 186 179 158 151 157 162 165 168 174 182 189 200 202 183 173 172 171 170 165
25 29 33 37 40 39 37 33 28 23 18 11 5 2 358 356 355 357 359 359 360 358 358 360 0 5 10 14 4 316 325 336 299 286 281 257 229 210 200 198 193 187 185 186 189 187 180 181 178 164 147 147 223 270 274 266 256 250 256 284 326 351 345 181 182 179 180 185 180 182 178 156 151 157 157 161 169 174 179 190 202 199 181 174 173 171 170 166
25 29 35 40 41 39 36 32 27 21 15 7 2 0 359 358 359 3 6 8 8 5 6 7 8 13 20 24 18 343 345 337 296 279 236 182 217 194 195 197 190 190 186 184 188 180 174 180 173 161 150 143 282 282 276 261 255 252 260 282 318 12 220 180 185 184 178 182 179 179 173 157 156 161 161 168 176 177 180 189 189 182 176 171 169 169 165 164
25 30 37 42 41 38 35 31 25 18 12 9 8 11 13 14 16 20 21 23 24 23 23 23 26 27 29 27 19 9 343 323 298 286 251 173 201 181 185 192 185 189 186 184 186 175 173 177 167 159 153 139 295 303 293 188 231 255 267 278 307 55 198 190 190 187 178 174 171 174 171 163 162 162 164 171 177 178 183 189 175 170 170 164 161 159 154 164
26 32 39 43 42 39 35 30 25 20 20 22 27 31 34 35 35 36 37 40 42 41 38 36 37 35 31 22 11 14 0 334 305 293 286 185 186 173 179 187 183 185 184 181 181 174 175 176 167 164 166 162 184 278 248 177 215 255 265 259 304 81 187 196 191 182 176 167 165 169 167 166 164 161 164 168 171 176 186 190 170 163 161 156 153 142 148 171
26 33 40 43 43 40 36 33 31 32 34 39 44 46 47 47 45 45 47 53 52 48 43 38 40 40 31 19 13 18 22 20 0 315 309 165 162 170 177 179 182 183 180 177 179 179 177 176 171 170 178 182 188 210 211 217 232 238 235 209 231 322 189 196 189 171 170 164 164 169 167 166 162 159 164 166 168 176 189 187 164 158 154 154 152 142 158 181
25 35 41 43 44 42 40 40 43 45 48 53 54 54 55 55 53 52 55 59 54 49 45 39 39 43 30 18 18 16 15 19 15 10 115 153 142 157 175 173 181 183 177 173 178 183 180 179 177 176 185 184 180 202 233 233 220 219 219 192 171 199 189 188 183 166 165 164 168 172 167 164 160 159 166 167 167 178 192 178 161 162 156 157 162 157 170 184
25 35 41 43 45 45 48 52 55 55 56 56 53 53 59 66 66 63 62 61 54 46 45 44 42 47 31 18 17 11 9 14 14 35 110 134 124 130 160 168 182 181 175 174 178 182 181 182 181 182 190 185 181 195 209 212 211 217 233 229 189 185 181 170 175 172 172 174 175 179 170 162 160 162 167 167 168 180 193 174 167 171 164 164 171 172 179 185
24 36 41 44 46 50 57 63 63 61 59 54 46 41 52 77 82 77 69 59 53 48 47 48 46 55 29 15 13 9 5 2 2 36 108 117 119 117 128 147 181 176 174 178 181 180 180 185 189 194 196 189 187 184 184 208 215 211 220 228 197 177 173 162 173 180 181 178 174 180 174 163 161 164 166 166 171 184 190 175 174 180 175 171 176 183 187 188
24 34 41 43 48 56 63 67 65 60 57 52 44 36 40 70 89 85 70 54 49 49 48 46 43 44 23 13 13 7 358 352 352 31 126 122 136 147 145 147 180 176 178 181 180 180 185 193 201 208 207 197 193 185 188 206 214 210 211 214 193 178 184 171 174 183 187 182 175 182 180 169 168 169 168 167 175 185 186 180 182 188 187 179 180 190 193 195
23 34 42 44 51 62 69 70 63 56 52 48 43 37 36 48 68 58 37 36 43 48 48 45 42 38 18 12 10 360 353 352 2 26 98 135 156 168 179 172 156 172 185 186 183 185 190 197 207 214 211 201 193 190 192 191 197 224 217 216 211 193 185 181 180 185 192 187 182 187 186 180 178 175 172 171 177 182 183 187 191 194 195 187 185 193 199 203
22 33 43 44 55 73 80 75 67 61 57 54 46 37 39 47 54 49 42 46 47 49 48 42 40 44 23 12 1 350 347 350 21 24 44 116 141 138 158 159 143 163 185 185 187 193 198 204 212 211 209 202 191 190 193 180 165 257 238 229 220 196 182 184 182 181 192 195 190 192 189 183 182 181 177 173 177 181 184 189 193 196 199 196 195 196 200 202
21 32 46 53 60 88 94 85 77 70 64 63 54 40 36 32 30 39 57 66 53 42 43 37 21 26 34 16 0 354 348 356 41 36 52 79 113 124 132 149 149 175 183 176 179 192 208 221 223 213 206 201 195 195 194 183 192 239 250 232 201 190 194 180 179 181 190 199 199 198 197 191 185 185 182 175 177 183 187 189 191 197 201 202 204 199 199 201
19 30 51 61 68 106 110 98 89 76 68 67 58 46 38 27 18 23 29 36 47 42 38 40 28 25 37 11 360 16 19 24 39 48 48 29 114 138 126 149 152 175 179 178 181 196 227 231 226 215 201 198 200 204 203 200 219 236 233 218 196 192 188 168 176 191 198 203 204 202 204 204 193 189 188 183 180 185 188 188 188 193 197 200 208 204 202 205
17 25 54 96 108 130 130 115 103 86 75 70 65 58 45 27 14 15 9 7 48 50 43 45 31 20 22 7 13 45 39 25 26 37 23 8 157 141 126 142 137 154 181 197 197 216 232 215 193 199 191 189 193 200 208 217 235 233 220 215 205 196 192 182 183 191 199 204 205 206 207 212 205 194 196 192 185 186 190 189 190 192 192 195 205 209 206 208
16 17 59 129 168 175 155 128 117 101 68 52 54 53 44 28 14 15 11 3 44 42 53 60 26 17 22 28 56 61 42 31 32 26 15 39 143 139 134 139 211 244 247 250 228 236 227 160 128 198 189 187 190 195 209 226 244 241 228 224 217 206 212 215 192 183 190 199 203 205 207 215 213 202 205 201 191 191 193 193 194 193 191 192 198 206 210 212
8 10 75 148 187 206 196 130 113 85 34 35 44 42 33 23 16 11 9 14 13 336 26 45 28 44 53 67 79 66 50 48 39 35 37 112 144 192 175 178 254 265 287 279 262 258 242 188 212 225 199 196 206 208 209 227 248 234 222 232 234 225 220 209 185 172 179 195 200 194 198 217 216 209 210 204 195 196 198 198 198 196 194 195 194 199 209 214
0 0 92 164 192 222 229 146 125 101 65 66 58 41 23 17 16 11 8 23 56 39 59 3 6 45 54 63 71 52 46 51 41 48 56 4 332 301 254 232 252 276 300 288 274 262 252 238 241 244 224 210 220 224 211 220 240 223 221 237 234 223 219 210 198 178 179 193 196 190 190 205 207 205 207 204 199 199 202 201 201 200 200 200 194 194 203 210
348 344 161 168 190 220 215 162 132 124 100 85 63 38 23 19 17 10 4 8 57 54 60 29 6 29 47 52 53 41 40 46 45 47 32 338 330 305 279 265 275 291 297 299 291 266 252 246 234 242 241 222 224 227 211 211 233 238 238 233 218 215 228 226 215 195 188 183 181 192 196 189 204 204 200 202 203 201 204 206 205 204 203 202 197 194 198 205
340 330 194 166 181 203 211 175 122 114 108 94 66 38 19 13 8 360 0 38 82 50 39 30 18 11 13 23 41 41 30 26 33 35 26 353 323 291 288 300 300 299 290 300 296 262 244 253 236 235 240 230 225 220 208 211 230 246 234 213 208 226 242 226 205 196 191 177 175 190 193 186 209 206 198 201 206 205 207 209 206 206 206 203 201 196 195 198
332 315 205 170 180 191 203 167 128 119 118 101 72 35 6 358 356 352 7 56 97 40 13 1 3 355 341 341 359 12 351 40 37 19 27 11 324 279 293 316 314 312 299 288 285 259 258 271 255 244 236 225 223 218 213 222 230 216 179 180 209 243 235 210 194 193 185 180 186 187 188 186 192 197 197 200 208 212 210 208 206 207 209 208 204 198 193 196
323 302 209 180 181 164 150 155 144 146 142 100 67 17 4 1 354 344 26 38 27 28 34 18 3 8 359 340 349 48 5 95 33 0 23 28 346 279 314 328 327 328 315 284 290 291 277 261 245 244 231 220 229 231 223 227 222 194 170 176 194 201 194 182 186 189 176 201 212 193 187 187 174 195 199 199 207 214 205 202 204 205 207 208 206 201 194 196
311 285 215 184 175 155 154 162 158 161 164 134 77 352 0 17 20 22 29 17 6 28 43 26 352 6 14 5 57 97 58 61 47 5 22 24 2 339 334 332 335 335 328 318 317 309 269 245 245 245 228 231 247 234 215 211 196 175 170 184 176 164 169 162 170 181 175 246 223 201 193 194 212 209 207 208 208 201 200 201 203 201 200 203 206 203 198 198
300 276 212 181 175 166 164 167 164 168 177 162 113 2 6 28 41 35 13 14 12 17 19 357 334 355 35 58 81 91 74 63 52 24 18 11 354 350 336 334 335 326 326 330 329 322 299 258 270 255 228 236 242 215 202 203 191 175 180 187 162 101 84 167 154 192 230 245 237 206 193 196 228 224 223 234 220 209 207 206 207 203 198 200 203 202 201 203
296 267 208 181 176 171 169 169 165 174 179 158 73 18 27 39 45 30 21 25 8 355 7 2 5 57 65 74 63 43 46 37 25 13 11 13 5 343 319 336 343 321 321 329 335 337 324 188 119 315 238 234 227 206 199 198 181 172 179 183 168 125 21 250 219 272 250 253 259 216 188 195 243 226 235 245 229 226 221 212 214 210 204 203 203 201 202 203
292 252 215 191 174 173 174 173 169 178 185 157 87 31 38 46 44 31 27 21 359 334 4 9 22 66 45 51 38 4 352 18 21 1 350 351 0 336 315 341 357 330 325 324 338 344 322 239 87 18 302 247 222 207 204 200 166 164 178 191 188 177 182 204 188 201 217 251 211 185 177 205 236 209 239 238 217 219 219 213 214 214 213 211 206 203 204 204
265 232 221 204 183 174 175 177 175 184 196 180 103 17 37 40 31 35 24 4 357 345 360 4 9 39 37 43 28 12 13 29 20 0 356 352 343 96 62 20 5 341 332 332 336 334 311 294 282 348 310 250 221 214 219 224 214 181 194 215 209 195 198 200 189 197 175 102 132 171 176 214 213 203 222 216 203 203 205 207 208 208 211 212 210 207 206 206
254 222 195 198 191 175 172 178 181 191 206 211 276 350 34 24 14 29 6 348 350 357 360 7 10 15 34 36 24 27 16 3 3 3 10 3 14 131 82 1 3 359 336 332 333 331 317 297 239 261 275 223 218 222 226 240 248 213 213 235 234 214 210 211 219 183 139 109 161 190 198 209 205 212 210 205 207 202 195 199 204 203 204 208 211 210 209 208
239 205 114 89 168 174 168 175 186 196 202 213 321 20 32 31 56 38 6 348 340 3 5 17 14 5 25 20 19 36 17 357 6 14 26 28 105 141 341 340 15 26 8 338 328 340 332 303 271 303 291 223 221 220 225 251 252 235 243 262 257 233 224 223 253 26 101 96 178 200 213 203 194 197 198 203 211 205 199 198 199 199 199 204 209 211 212 211
222 109 93 87 98 138 172 178 184 193 188 192 10 33 22 39 102 41 12 4 12 23 17 7 359 5 8 350 355 25 11 4 34 30 33 42 99 69 344 337 45 14 10 345 314 336 341 307 273 312 308 227 217 215 235 255 235 246 259 264 286 271 255 233 218 217 148 91 164 208 230 211 200 193 188 198 208 209 208 204 201 201 199 201 204 207 211 212
102 106 105 96 88 86 163 187 183 194 193 350 13 50 19 28 98 33 12 20 23 6 4 1 353 0 11 7 15 25 17 36 59 33 21 29 100 67 360 339 335 3 18 5 332 334 344 318 267 269 304 291 259 309 353 341 214 243 259 256 270 284 282 255 231 225 183 124 154 199 253 223 208 198 193 204 211 213 213 211 212 212 205 202 204 205 207 210
118 120 116 95 69 51 34 181 180 197 205 357 11 31 6 10 61 338 339 357 1 334 345 5 355 338 4 17 14 22 33 55 58 31 25 29 349 281 14 341 324 352 15 353 348 344 337 332 289 269 278 319 353 27 26 13 4 8 333 310 303 287 279 268 239 227 215 159 136 141 277 228 204 196 201 209 210 209 215 221 228 227 214 208 208 209 209 209
146 144 131 99 62 30 9 110 169 230 262 292 347 356 349 348 356 318 314 327 337 332 343 359 346 331 341 333 327 2 16 17 26 21 30 48 26 7 51 359 327 322 337 331 341 347 335 326 301 288 288 298 319 25 37 4 5 29 30 14 3 332 297 267 238 227 223 221 172 165 229 217 197 194 192 192 201 207 215 227 235 236 223 213 210 212 214 214
160 158 153 149 133 64 326 317 287 265 269 281 329 338 332 313 297 292 311 340 332 326 350 0 341 330 1 345 343 357 328 322 336 347 359 38 49 51 51 5 336 331 342 336 335 333 329 319 298 296 303 289 288 334 5 4 25 56 34 17 6 355 337 286 258 227 216 223 198 182 209 204 192 192 184 183 194 203 210 220 224 227 222 214 209 207 211 216
170 169 168 188 167 173 241 274 281 262 274 314 319 320 320 290 260 250 252 253 256 271 336 11 3 10 36 14 347 326 315 313 333 313 306 322 29 32 15 344 317 320 341 348 341 318 317 332 318 305 298 284 272 259 209 46 40 38 20 8 353 2 2 312 283 271 228 262 183 167 178 212 196 189 184 185 192 197 205 211 210 213 213 209 208 204 204 208
171 177 177 189 193 199 226 258 293 277 289 316 308 315 324 290 243 228 234 255 276 274 267 320 353 301 10 21 332 319 341 19 80 305 297 277 213 6 336 307 311 337 6 10 0 339 326 345 352 343 327 305 288 268 256 11 20 19 15 4 355 2 7 329 291 277 314 41 147 176 190 215 202 194 189 190 195 199 207 214 213 213 208 204 206 206 205 207
175 181 186 195 204 209 220 251 286 289 308 320 313 321 333 294 229 232 270 284 295 285 255 262 296 290 318 349 304 299 335 352 165 190 257 271 244 271 292 303 340 10 16 5 355 346 335 336 5 14 20 351 322 335 355 1 6 17 21 8 359 5 9 12 352 260 121 79 176 194 182 188 193 194 190 191 201 208 215 223 224 218 209 205 207 211 213 214
196 195 197 204 209 210 213 229 250 265 296 313 310 315 318 288 249 266 276 274 272 291 294 267 251 269 300 310 298 293 320 318 308 253 236 251 261 266 259 263 331 339 334 332 334 334 323 319 11 12 43 29 22 41 24 7 2 19 28 20 10 8 7 18 36 6 348 87 167 181 178 175 177 186 189 192 203 212 218 225 229 225 216 210 210 214 220 225
211 212 208 208 214 219 218 222 238 249 267 285 285 289 291 288 304 286 257 255 249 240 14 39 195 317 320 296 275 281 328 285 287 276 250 253 266 276 265 254 276 318 316 309 326 337 321 321 20 20 22 11 13 21 352 356 17 27 26 21 16 10 5 15 29 12 335 218 194 168 174 172 174 186 190 189 194 206 216 225 233 235 230 222 217 217 221 227
217 219 215 209 212 221 220 221 237 247 259 282 280 274 270 274 299 286 246 245 236 193 159 116 250 344 16 26 231 261 341 286 269 278 285 283 276 277 274 259 263 292 302 311 339 349 333 345 359 352 340 337 345 331 279 317 39 30 19 16 15 14 14 16 13 359 313 223 209 179 177 181 185 185 184 183 192 210 227 234 240 242 242 240 236 231 226 224
227 225 224 222 220 221 219 218 228 239 256 304 288 270 265 266 285 286 216 196 186 188 179 173 226 259 23 42 35 340 355 328 294 299 316 325 297 271 271 271 275 275 261 309 353 348 314 347 2 346 335 336 352 104 188 174 39 21 23 26 18 18 29 37 22 356 320 217 187 180 186 187 184 183 181 185 198 214 229 238 244 243 242 244 243 239 233 228
242 234 231 231 228 223 222 221 225 236 257 317 292 272 274 268 269 277 248 225 203 179 168 188 218 226 271 359 359 344 354 349 311 294 320 334 347 306 293 314 323 306 253 297 348 356 336 342 358 355 2 34 62 140 185 191 72 13 29 34 24 19 31 48 57 23 352 174 155 161 172 171 176 186 184 181 201 233 237 241 247 241 238 241 242 242 239 234
254 246 239 237 235 229 230 234 235 243 252 275 321 330 319 292 269 263 272 269 240 215 206 271 249 232 238 269 319 316 299 149 168 180 249 295 342 349 308 317 343 11 19 319 300 317 344 346 357 355 353 35 66 92 175 192 202 323 16 33 29 23 30 45 55 47 66 144 146 149 148 147 165 182 179 173 185 230 247 252 253 248 245 243 245 250 249 244
260 258 250 247 243 235 235 236 237 244 248 243 285 337 336 331 295 255 250 229 221 248 274 282 283 265 242 246 283 280 232 213 219 231 244 249 254 277 275 289 301 299 335 334 298 303 343 355 17 0 324 334 34 47 123 180 205 313 32 49 38 30 40 62 69 63 97 140 165 163 141 131 161 179 186 190 186 201 238 250 250 250 252 246 241 246 249 246
Height
3162 3162 3162 3161 3161 3160 3160 3160 3159 3159 3159 3159 3158 3158 3158 3158 3157 3157 3157 3157 3156 3156 3156 3156 3157 3157 3157 3158 3158 3159 3160 3161 3162 3163 3164 3165 3166 3167 3168 3170 3171 3172 3173 3174 3175 3176 3176 3177 3178 3179 3179 3179 3179 3179 3178 3178 3179 3180 3183 3183 3181 3180 3181 3181 3181 3181 3182 3183 3184 3184 3185 3186 3187 3189 3190 3191 3191 3191 3193 3194 3194 3195 3196 3197 3197 3197 3198 3199
3163 3162 3162 3161 3161 3160 3160 3160 3159 3159 3159 3158 3158 3158 3157 3157 3157 3156 3156 3156 3156 3155 3155 3155 3155 3156 3156 3157 3157 3158 3158 3160 3161 3161 3163 3164 3165 3166 3167 3168 3170 3171 3172 3173 3174 3175 3176 3176 3177 3178 3178 3179 3179 3178 3178 3178 3179 3181 3182 3182 3181 3180 3180 3181 3181 3182 3182 3183 3184 3184 3185 3186 3187 3188 3189 3190 3191 3191 3192 3193 3193 3194 3195 3196 3197 3197 3198 3200
3163 3162 3162 3161 3161 3160 3160 3160 3159 3159 3159 3158 3158 3157 3157 3157 3156 3156 3155 3155 3155 3155 3154 3154 3154 3155 3155 3156 3156 3156 3157 3158 3159 3160 3161 3163 3164 3165 3166 3167 3169 3170 3171 3172 3173 3174 3175 3175 3176 3176 3177 3178 3178 3177 3177 3178 3179 3181 3181 3181 3181 3180 3180 3180 3181 3181 3182 3183 3184 3184 3185 3186 3187 3188 3188 3190 3191 3191 3191 3191 3191 3193 3194 3195 3196 3197 3198 3200
3163 3162 3162 3161 3161 3160 3160 3160 3159 3159 3159 3158 3158 3157 3157 3156 3156 3155 3155 3154 3154 3154 3154 3153 3153 3154 3154 3155 3155 3155 3156 3157 3157 3158 3160 3161 3163 3164 3165 3166 3167 3169 3170 3171 3172 3173 3174 3175 3176 3177 3177 3177 3177 3177 3177 3177 3179 3180 3181 3180 3180 3179 3179 3179 3180 3181 3182 3183 3183 3184 3185 3187 3188 3190 3190 3190 3191 3191 3191 3190 3191 3193 3194 3195 3196 3197 3199 3201
3163 3163 3162 3162 3161 3161 3160 3160 3159 3159 3159 3158 3158 3157 3157 3156 3156 3155 3155 3154 3154 3153 3153 3153 3153 3153 3153 3153 3154 3154 3155 3156 3157 3157 3158 3160 3161 3162 3164 3165 3166 3168 3169 3170 3171 3172 3174 3175 3176 3177 3177 3177 3176 3177 3177 3178 3179 3180 3179 3179 3179 3178 3178 3178 3178 3179 3180 3181 3182 3183 3185 3186 3188 3189 3190 3190 3190 3189 3190 3191 3192 3194 3195 3196 3197 3198 3199 3201
3164 3163 3162 3162 3161 3161 3160 3160 3160 3159 3159 3158 3158 3157 3157 3156 3156 3155 3154 3154 3153 3153 3152 3152 3152 3152 3152 3152 3153 3153 3155 3156 3156 3156 3157 3158 3159 3161 3162 3164 3165 3167 3168 3169 3170 3172 3173 3174 3176 3177 3177 3176 3176 3177 3178 3178 3179 3179 3178 3178 3178 3178 3177 3176 3176 3177 3178 3180 3181 3183 3185 3186 3187 3188 3189 3190 3190 3190 3191 3192 3194 3195 3197 3197 3198 3199 3200 3201
3164 3163 3163 3162 3162 3161 3161 3160 3160 3159 3159 3158 3158 3157 3157 3156 3156 3155 3154 3154 3153 3153 3152 3152 3152 3152 3151 3151 3152 3152 3154 3154 3154 3155 3156 3157 3158 3159 3161 3162 3164 3165 3167 3168 3169 3171 3172 3173 3175 3176 3176 3176 3177 3177 3178 3178 3179 3179 3178 3177 3177 3176 3175 3174 3174 3174 3175 3178 3179 3182 3184 3185 3187 3188 3188 3189 3190 3190 3192 3193 3195 3196 3197 3198 3199 3200 3201 3202
3164 3164 3163 3163 3162 3162 3161 3161 3160 3159 3159 3158 3158 3157 3157 3156 3155 3155 3154 3153 3153 3152 3152 3152 3151 3151 3151 3150 3151 3151 3152 3152 3152 3154 3156 3156 3157 3158 3160 3161 3163 3164 3165 3167 3168 3170 3171 3172 3175 3176 3175 3176 3177 3177 3177 3177 3178 3177 3178 3177 3176 3175 3173 3172 3172 3172 3174 3176 3178 3182 3183 3184 3186 3188 3188 3188 3190 3190 3192 3194 3195 3196 3197 3199 3200 3201 3202 3203
3165 3164 3164 3163 3163 3162 3161 3161 3160 3160 3159 3159 3158 3157 3157 3156 3155 3155 3154 3153 3152 3152 3152 3151 3151 3151 3151 3150 3150 3150 3151 3152 3152 3153 3154 3155 3156 3157 3159 3160 3161 3163 3164 3165 3167 3168 3170 3172 3174 3175 3175 3175 3176 3177 3177 3177 3177 3177 3177 3176 3175 3174 3172 3171 3171 3173 3175 3176 3179 3183 3185 3183 3184 3187 3188 3189 3190 3191 3193 3194 3196 3197 3198 3199 3200 3201 3202 3204
3165 3165 3164 3164 3163 3162 3162 3161 3161 3160 3159 3159 3158 3158 3157 3156 3155 3154 3154 3153 3152 3152 3151 3151 3151 3151 3150 3150 3150 3149 3151 3152 3152 3152 3153 3153 3154 3156 3157 3159 3160 3161 3163 3164 3165 3167 3170 3172 3173 3173 3173 3174 3175 3175 3176 3176 3176 3176 3176 3176 3175 3174 3172 3172 3173 3174 3176 3179 3179 3181 3184 3184 3184 3186 3188 3190 3191 3192 3194 3195 3196 3197 3198 3199 3200 3202 3203 3204
3166 3165 3164 3164 3163 3163 3162 3161 3161 3160 3160 3159 3158 3158 3157 3156 3155 3154 3153 3153 3152 3152 3151 3151 3151 3150 3150 3150 3150 3150 3150 3150 3150 3150 3151 3152 3153 3154 3156 3158 3159 3160 3162 3163 3165 3167 3169 3171 3172 3171 3172 3173 3174 3174 3174 3175 3175 3176 3176 3175 3175 3174 3173 3173 3174 3176 3178 3180 3181 3182 3185 3185 3185 3188 3188 3190 3192 3193 3194 3195 3196 3197 3198 3200 3201 3202 3203 3204
3166 3165 3165 3164 3164 3163 3162 3161 3161 3160 3160 3159 3158 3158 3157 3156 3155 3154 3153 3153 3153 3152 3151 3151 3150 3150 3150 3150 3150 3150 3150 3149 3148 3148 3150 3151 3151 3153 3155 3156 3158 3159 3161 3162 3164 3166 3167 3169 3169 3170 3171 3172 3173 3173 3173 3174 3175 3175 3175 3175 3174 3174 3174 3174 3175 3177 3178 3179 3180 3183 3186 3185 3186 3188 3189 3191 3192 3193 3195 3196 3196 3197 3199 3200 3201 3202 3203 3204
3166 3165 3165 3164 3164 3163 3162 3162 3161 3160 3160 3159 3158 3158 3157 3156 3155 3154 3154 3153 3153 3152 3152 3151 3150 3150 3150 3150 3150 3150 3150 3149 3148 3147 3148 3150 3151 3152 3153 3155 3157 3158 3160 3162 3164 3165 3167 3167 3167 3168 3170 3172 3173 3173 3173 3174 3174 3174 3174 3174 3174 3173 3174 3175 3175 3177 3177 3177 3178 3182 3184 3184 3185 3187 3188 3191 3192 3194 3195 3196 3197 3198 3199 3200 3202 3203 3203 3204
3166 3165 3165 3165 3164 3163 3162 3162 3161 3160 3160 3159 3159 3158 3157 3156 3156 3155 3154 3154 3153 3153 3152 3151 3151 3151 3151 3150 3150 3150 3150 3149 3148 3147 3147 3149 3150 3151 3153 3154 3156 3157 3159 3160 3163 3165 3166 3166 3166 3167 3168 3170 3172 3172 3173 3173 3173 3174 3174 3174 3174 3174 3174 3175 3176 3176 3176 3177 3179 3181 3182 3183 3185 3187 3189 3191 3192 3194 3195 3196 3197 3198 3200 3201 3202 3203 3204 3205
3166 3166 3165 3165 3164 3163 3162 3162 3161 3160 3160 3159 3159 3158 3157 3157 3156 3156 3155 3155 3154 3153 3152 3152 3151 3151 3151 3151 3150 3150 3149 3148 3147 3147 3148 3149 3150 3151 3153 3154 3155 3157 3158 3159 3161 3164 3164 3164 3165 3166 3167 3169 3171 3172 3172 3172 3173 3173 3174 3174 3174 3174 3174 3174 3176 3176 3176 3178 3180 3182 3183 3184 3185 3187 3189 3191 3193 3195 3196 3197 3198 3199 3201 3202 3203 3204 3205 3206
3166 3166 3165 3165 3164 3163 3162 3162 3161 3161 3160 3159 3159 3159 3158 3157 3157 3156 3156 3155 3154 3154 3152 3152 3151 3151 3152 3151 3151 3150 3148 3148 3148 3148 3148 3149 3149 3151 3152 3153 3155 3156 3158 3159 3161 3162 3163 3163 3164 3165 3166 3168 3170 3171 3172 3172 3172 3173 3173 3173 3173 3173 3174 3174 3175 3175 3177 3179 3181 3183 3184 3185 3186 3187 3190 3191 3193 3196 3196 3197 3198 3199 3201 3202 3204 3205 3206 3207
3166 3166 3165 3165 3164 3163 3162 3162 3161 3161 3160 3160 3159 3159 3159 3158 3157 3157 3156 3155 3155 3154 3153 3152 3151 3151 3152 3151 3150 3150 3149 3149 3149 3148 3148 3148 3149 3150 3151 3153 3154 3155 3157 3158 3160 3161 3162 3163 3163 3163 3164 3167 3169 3170 3171 3171 3170 3171 3172 3173 3173 3174 3174 3175 3175 3176 3177 3179 3181 3184 3185 3186 3187 3188 3190 3192 3194 3196 3197 3197 3198 3200 3202 3203 3204 3206 3207 3207
3166 3166 3165 3165 3164 3163 3162 3162 3161 3161 3160 3160 3160 3159 3159 3158 3158 3157 3156 3156 3155 3154 3153 3152 3151 3151 3152 3151 3151 3151 3150 3149 3149 3148 3149 3149 3149 3150 3151 3153 3154 3155 3156 3157 3159 3160 3161 3162 3162 3162 3163 3165 3166 3168 3168 3167 3168 3170 3171 3172 3173 3174 3175 3175 3175 3175 3176 3178 3181 3184 3186 3187 3188 3189 3190 3192 3194 3196 3197 3198 3198 3200 3202 3203 3205 3206 3207 3208
3166 3166 3165 3165 3164 3163 3163 3162 3161 3161 3161 3160 3160 3159 3159 3158 3158 3157 3156 3156 3156 3155 3153 3152 3152 3152 3153 3152 3151 3151 3151 3151 3150 3149 3149 3149 3150 3151 3151 3152 3154 3155 3156 3157 3158 3159 3160 3161 3161 3161 3161 3163 3165 3166 3166 3167 3170 3170 3170 3171 3172 3173 3174 3174 3174 3175 3176 3178 3180 3183 3185 3186 3188 3189 3191 3192 3194 3196 3197 3198 3199 3200 3202 3203 3205 3206 3207 3208
3166 3166 3165 3165 3164 3164 3163 3162 3162 3161 3161 3161 3161 3160 3159 3159 3158 3156 3156 3155 3156 3155 3154 3153 3153 3153 3153 3152 3152 3152 3152 3152 3151 3150 3150 3150 3150 3151 3152 3153 3153 3155 3156 3157 3158 3159 3160 3160 3160 3160 3161 3162 3164 3165 3166 3168 3171 3171 3171 3171 3171 3172 3172 3173 3174 3176 3177 3179 3180 3182 3184 3185 3187 3188 3188 3190 3193 3195 3197 3198 3199 3200 3201 3202 3204 3206 3207 3207
3166 3165 3165 3165 3164 3164 3163 3162 3162 3162 3162 3161 3161 3160 3159 3158 3157 3156 3155 3155 3155 3155 3154 3154 3153 3153 3152 3152 3154 3153 3152 3152 3151 3151 3151 3151 3151 3151 3153 3154 3154 3155 3155 3157 3158 3159 3160 3159 3159 3159 3160 3162 3163 3165 3166 3169 3170 3171 3171 3171 3171 3172 3172 3172 3173 3175 3177 3178 3179 3180 3182 3184 3185 3186 3187 3188 3191 3194 3196 3197 3198 3199 3201 3202 3203 3205 3207 3207
3165 3165 3165 3165 3164 3164 3163 3163 3162 3162 3162 3161 3161 3160 3159 3159 3158 3157 3155 3155 3155 3154 3154 3154 3153 3152 3151 3152 3154 3154 3153 3152 3151 3151 3152 3152 3151 3152 3153 3154 3155 3155 3156 3157 3158 3158 3159 3158 3158 3159 3160 3161 3162 3164 3166 3168 3170 3171 3171 3170 3170 3171 3171 3172 3173 3174 3175 3176 3178 3179 3181 3182 3183 3185 3187 3188 3190 3192 3194 3196 3197 3198 3200 3201 3202 3203 3205 3207
3165 3165 3164 3164 3164 3164 3163 3163 3162 3162 3162 3161 3160 3160 3159 3159 3159 3158 3156 3156 3155 3154 3154 3153 3153 3152 3151 3152 3154 3155 3153 3152 3151 3152 3152 3152 3152 3152 3153 3153 3155 3156 3157 3158 3158 3158 3157 3156 3156 3158 3159 3160 3161 3163 3164 3166 3169 3170 3170 3169 3169 3169 3169 3169 3171 3173 3174 3175 3177 3178 3180 3181 3183 3185 3187 3189 3190 3190 3192 3194 3195 3197 3199 3199 3201 3202 3204 3205
3165 3164 3164 3164 3164 3164 3163 3163 3162 3162 3162 3162 3161 3160 3160 3159 3159 3157 3157 3156 3156 3155 3155 3154 3153 3153 3153 3154 3155 3154 3154 3153 3152 3152 3153 3153 3153 3153 3153 3154 3155 3156 3157 3158 3158 3157 3155 3154 3156 3158 3159 3160 3160 3162 3163 3165 3167 3168 3168 3168 3168 3167 3167 3167 3169 3170 3173 3175 3176 3177 3179 3180 3182 3183 3185 3188 3190 3190 3191 3192 3193 3196 3197 3198 3199 3201 3203 3204
3164 3164 3164 3163 3164 3163 3163 3162 3162 3162 3162 3162 3162 3161 3160 3159 3158 3157 3156 3156 3156 3155 3155 3154 3154 3154 3154 3155 3154 3154 3153 3152 3152 3153 3153 3154 3154 3154 3154 3154 3155 3155 3157 3158 3158 3157 3154 3154 3156 3157 3158 3159 3159 3160 3161 3163 3165 3166 3165 3165 3166 3166 3166 3166 3168 3169 3171 3174 3173 3174 3177 3178 3179 3181 3183 3185 3187 3189 3190 3191 3192 3194 3196 3196 3197 3200 3202 3203
3164 3163 3163 3163 3163 3163 3163 3162 3162 3162 3162 3162 3162 3161 3160 3160 3158 3157 3157 3156 3156 3155 3154 3154 3154 3155 3155 3155 3154 3153 3153 3153 3153 3153 3154 3154 3155 3154 3154 3154 3155 3155 3156 3157 3157 3156 3153 3154 3155 3156 3157 3159 3159 3159 3159 3162 3164 3164 3163 3164 3165 3166 3165 3165 3166 3167 3169 3170 3171 3172 3174 3175 3177 3178 3180 3182 3185 3187 3188 3189 3190 3192 3193 3195 3196 3197 3200 3201
3163 3163 3162 3162 3162 3162 3162 3162 3162 3162 3162 3162 3162 3161 3161 3160 3158 3158 3157 3157 3156 3155 3155 3156 3156 3156 3156 3155 3155 3153 3153 3154 3154 3154 3154 3154 3154 3154 3154 3155 3155 3155 3156 3156 3155 3154 3152 3153 3155 3155 3156 3157 3158 3157 3158 3161 3163 3163 3162 3162 3164 3165 3164 3164 3165 3166 3167 3168 3170 3171 3172 3173 3174 3174 3177 3180 3182 3184 3186 3187 3188 3189 3191 3193 3194 3195 3197 3200
3163 3162 3162 3162 3162 3162 3162 3162 3162 3162 3162 3162 3161 3161 3161 3160 3159 3158 3157 3157 3157 3156 3156 3157 3156 3156 3156 3155 3155 3154 3154 3154 3154 3154 3154 3154 3154 3154 3154 3154 3154 3154 3155 3155 3153 3151 3151 3151 3153 3154 3155 3156 3156 3156 3158 3160 3161 3161 3160 3161 3164 3164 3164 3164 3164 3165 3166 3167 3168 3170 3171 3172 3172 3172 3174 3177 3179 3180 3181 3183 3185 3186 3189 3191 3193 3194 3195 3198
3162 3162 3161 3161 3161 3161 3161 3162 3162 3162 3162 3161 3161 3161 3160 3160 3159 3159 3158 3158 3158 3157 3157 3157 3156 3156 3155 3155 3155 3155 3155 3155 3155 3155 3154 3155 3154 3153 3154 3154 3154 3153 3153 3154 3152 3151 3150 3150 3152 3153 3153 3154 3154 3155 3157 3159 3160 3160 3161 3162 3164 3164 3164 3164 3165 3164 3166 3167 3166 3166 3167 3168 3169 3170 3171 3174 3175 3174 3175 3179 3182 3184 3187 3188 3191 3193 3194 3197
3161 3161 3161 3161 3161 3161 3161 3161 3162 3162 3161 3161 3161 3161 3160 3160 3159 3159 3159 3159 3158 3157 3157 3157 3156 3155 3154 3154 3155 3155 3155 3155 3155 3155 3155 3155 3154 3153 3154 3154 3154 3153 3152 3152 3152 3151 3150 3149 3150 3151 3151 3152 3153 3154 3156 3157 3158 3159 3160 3162 3163 3164 3165 3166 3165 3165 3168 3167 3163 3163 3164 3164 3167 3167 3167 3168 3167 3166 3169 3175 3178 3180 3183 3185 3188 3190 3192 3195
3161 3160 3160 3160 3160 3160 3161 3161 3161 3161 3161 3161 3161 3161 3160 3160 3159 3159 3159 3159 3158 3158 3158 3157 3157 3156 3155 3154 3155 3156 3156 3155 3156 3155 3155 3155 3154 3154 3154 3153 3153 3153 3151 3150 3149 3148 3148 3148 3148 3149 3150 3151 3152 3153 3154 3156 3157 3157 3158 3161 3163 3165 3166 3166 3167 3169 3169 3165 3160 3161 3163 3165 3165 3164 3163 3163 3163 3164 3166 3169 3171 3174 3177 3181 3184 3187 3190 3192
3160 3160 3160 3160 3160 3160 3160 3160 3161 3161 3161 3161 3161 3160 3160 3160 3159 3159 3159 3158 3158 3159 3158 3157 3157 3157 3156 3156 3156 3157 3156 3156 3156 3156 3155 3155 3154 3154 3154 3153 3153 3152 3151 3150 3148 3147 3146 3147 3147 3148 3149 3150 3151 3152 3153 3154 3155 3156 3158 3161 3163 3168 3173 3171 3169 3169 3166 3160 3158 3160 3163 3165 3163 3161 3161 3161 3162 3164 3165 3166 3168 3171 3174 3177 3181 3184 3187 3190
3160 3159 3159 3159 3159 3159 3160 3160 3160 3160 3160 3161 3161 3160 3160 3159 3159 3160 3159 3159 3158 3159 3159 3157 3156 3157 3157 3156 3156 3157 3156 3156 3156 3155 3155 3154 3154 3154 3154 3153 3154 3153 3152 3150 3149 3148 3146 3146 3147 3148 3148 3149 3150 3150 3151 3152 3153 3155 3157 3158 3160 3170 3179 3176 3169 3167 3163 3158 3157 3158 3162 3164 3160 3159 3160 3160 3161 3163 3164 3166 3168 3170 3172 3175 3179 3182 3185 3187
3159 3159 3159 3159 3159 3159 3159 3159 3160 3160 3160 3160 3161 3161 3160 3159 3160 3160 3160 3160 3159 3158 3159 3158 3157 3156 3156 3156 3156 3156 3156 3156 3155 3155 3154 3154 3154 3154 3154 3153 3153 3153 3152 3151 3151 3150 3148 3148 3147 3148 3148 3148 3149 3150 3150 3151 3153 3155 3157 3156 3156 3160 3166 3166 3163 3162 3160 3156 3156 3158 3161 3161 3158 3158 3159 3159 3160 3162 3163 3166 3168 3170 3172 3175 3178 3181 3183 3185
3159 3158 3158 3159 3159 3159 3159 3159 3160 3160 3160 3160 3160 3161 3160 3159 3160 3160 3160 3160 3159 3158 3158 3157 3157 3156 3156 3156 3156 3155 3155 3155 3155 3154 3154 3154 3154 3153 3154 3153 3153 3153 3152 3152 3151 3150 3149 3148 3147 3148 3147 3146 3148 3150 3150 3150 3151 3154 3155 3156 3155 3155 3155 3155 3155 3155 3155 3155 3158 3159 3159 3157 3156 3157 3157 3158 3159 3159 3161 3163 3165 3167 3170 3173 3176 3178 3180 3183
3158 3158 3158 3158 3159 3158 3159 3159 3159 3160 3160 3160 3160 3160 3160 3159 3160 3160 3160 3159 3159 3158 3157 3157 3157 3156 3156 3156 3156 3155 3155 3154 3154 3154 3154 3153 3153 3153 3154 3154 3153 3153 3153 3152 3152 3150 3149 3147 3147 3147 3145 3144 3146 3148 3149 3149 3150 3151 3152 3153 3153 3153 3152 3151 3151 3151 3152 3155 3158 3158 3156 3155 3156 3156 3156 3156 3157 3158 3159 3161 3162 3164 3166 3169 3172 3174 3177 3180
3158 3158 3158 3158 3159 3159 3159 3158 3159 3159 3159 3160 3160 3160 3160 3160 3160 3160 3160 3159 3158 3158 3158 3157 3157 3156 3156 3157 3156 3156 3155 3155 3155 3155 3154 3153 3153 3154 3154 3154 3153 3153 3153 3152 3152 3151 3149 3147 3145 3146 3145 3143 3143 3145 3147 3148 3149 3150 3150 3151 3150 3150 3150 3149 3149 3150 3151 3155 3157 3156 3155 3155 3155 3154 3154 3155 3156 3157 3158 3158 3160 3162 3163 3165 3168 3171 3174 3177
3157 3158 3158 3158 3159 3159 3159 3158 3159 3159 3159 3160 3160 3160 3160 3160 3159 3160 3160 3158 3158 3158 3158 3158 3158 3157 3156 3156 3156 3156 3156 3155 3155 3155 3154 3154 3154 3154 3154 3153 3153 3153 3153 3152 3151 3151 3150 3146 3145 3146 3146 3144 3143 3145 3146 3147 3148 3149 3150 3150 3149 3149 3149 3148 3149 3150 3151 3154 3157 3157 3156 3155 3154 3153 3152 3153 3155 3155 3156 3157 3159 3160 3161 3163 3166 3169 3172 3174
3158 3158 3158 3159 3159 3159 3159 3159 3159 3159 3159 3159 3159 3159 3160 3159 3159 3160 3160 3159 3158 3158 3158 3158 3157 3157 3157 3156 3156 3156 3156 3155 3155 3155 3155 3154 3154 3154 3154 3153 3153 3153 3152 3152 3150 3150 3150 3148 3145 3145 3144 3144 3144 3145 3146 3145 3146 3147 3148 3149 3149 3149 3149 3148 3148 3148 3149 3152 3156 3158 3157 3155 3153 3152 3152 3153 3154 3155 3156 3156 3158 3159 3161 3162 3164 3166 3169 3171
3158 3158 3159 3159 3159 3159 3159 3159 3159 3159 3159 3159 3158 3158 3159 3159 3158 3159 3159 3159 3159 3159 3158 3158 3158 3157 3157 3156 3156 3156 3156 3156 3156 3155 3155 3155 3155 3154 3154 3153 3152 3152 3152 3151 3150 3149 3149 3149 3147 3144 3143 3144 3145 3146 3147 3147 3147 3146 3147 3147 3147 3147 3147 3147 3146 3146 3148 3150 3153 3157 3157 3153 3151 3152 3152 3152 3154 3155 3156 3157 3158 3159 3160 3162 3164 3165 3167 3168
3157 3158 3158 3158 3158 3158 3158 3158 3158 3159 3158 3158 3158 3158 3158 3158 3158 3158 3158 3158 3159 3158 3158 3158 3158 3157 3156 3156 3156 3156 3156 3156 3156 3156 3155 3155 3155 3155 3155 3154 3153 3152 3151 3150 3150 3150 3149 3148 3147 3145 3144 3145 3145 3147 3148 3148 3147 3147 3146 3146 3146 3145 3146 3146 3146 3145 3146 3148 3150 3152 3152 3149 3150 3151 3151 3151 3152 3153 3155 3156 3157 3158 3159 3161 3163 3165 3166 3168
3157 3157 3157 3157 3156 3156 3157 3157 3158 3158 3158 3157 3157 3158 3158 3157 3157 3157 3157 3157 3158 3158 3157 3157 3157 3157 3156 3156 3156 3156 3156 3156 3155 3155 3155 3155 3155 3155 3154 3153 3152 3152 3152 3151 3151 3150 3149 3148 3147 3145 3146 3145 3145 3147 3148 3147 3146 3146 3145 3145 3145 3145 3145 3145 3145 3144 3145 3146 3147 3149 3149 3147 3148 3149 3149 3150 3151 3151 3153 3154 3155 3156 3158 3160 3162 3164 3165 3167
3156 3156 3157 3157 3156 3155 3156 3157 3158 3158 3157 3156 3156 3156 3156 3155 3156 3156 3156 3156 3157 3157 3157 3157 3157 3156 3156 3156 3156 3155 3155 3155 3154 3155 3155 3155 3155 3154 3154 3153 3152 3152 3152 3151 3151 3150 3150 3149 3146 3144 3143 3142 3143 3144 3145 3145 3144 3145 3145 3145 3145 3145 3145 3145 3145 3144 3144 3145 3146 3147 3148 3147 3147 3148 3149 3149 3150 3150 3151 3152 3153 3155 3156 3158 3160 3162 3164 3165
3156 3156 3156 3156 3156 3156 3155 3156 3157 3157 3157 3156 3155 3155 3154 3154 3155 3155 3155 3155 3156 3156 3156 3156 3156 3156 3156 3156 3156 3155 3154 3154 3154 3154 3154 3154 3154 3154 3153 3153 3152 3152 3152 3152 3151 3150 3149 3148 3147 3146 3145 3144 3144 3144 3144 3143 3144 3146 3147 3146 3145 3144 3143 3143 3143 3144 3144 3145 3145 3146 3146 3145 3146 3147 3148 3149 3150 3150 3151 3151 3152 3154 3155 3157 3159 3160 3162 3164
3155 3155 3155 3155 3155 3155 3155 3155 3156 3156 3156 3156 3154 3153 3153 3153 3154 3155 3155 3154 3154 3155 3155 3155 3155 3155 3155 3155 3155 3154 3154 3154 3154 3154 3154 3153 3153 3153 3153 3153 3152 3152 3152 3152 3151 3150 3149 3149 3148 3149 3150 3151 3152 3152 3150 3149 3148 3149 3148 3146 3144 3142 3142 3142 3142 3142 3143 3144 3144 3144 3143 3143 3144 3146 3148 3149 3150 3151 3151 3151 3151 3153 3154 3156 3157 3159 3161 3162
3154 3154 3153 3153 3153 3153 3153 3154 3154 3155 3155 3155 3154 3152 3153 3153 3153 3153 3153 3153 3153 3153 3153 3154 3155 3155 3154 3154 3154 3153 3153 3153 3153 3153 3153 3153 3152 3152 3153 3153 3152 3152 3152 3152 3151 3150 3149 3149 3149 3149 3150 3152 3153 3154 3154 3154 3152 3150 3148 3146 3144 3142 3143 3143 3141 3142 3143 3143 3143 3143 3142 3143 3144 3145 3146 3148 3150 3150 3151 3151 3151 3152 3154 3156 3158 3159 3160 3161
3152 3151 3150 3151 3152 3151 3151 3151 3152 3152 3153 3154 3152 3151 3151 3153 3152 3152 3152 3151 3152 3152 3152 3153 3154 3153 3153 3153 3153 3152 3152 3152 3152 3153 3152 3152 3152 3152 3152 3152 3152 3151 3151 3151 3151 3150 3149 3149 3149 3150 3150 3151 3151 3152 3154 3154 3153 3151 3148 3146 3144 3144 3143 3142 3141 3142 3143 3143 3143 3143 3142 3142 3143 3143 3144 3147 3149 3150 3150 3150 3151 3152 3154 3156 3158 3159 3159 3159
3149 3148 3148 3149 3150 3149 3149 3150 3151 3151 3152 3153 3151 3150 3150 3152 3152 3151 3151 3151 3151 3151 3152 3152 3153 3152 3152 3152 3152 3151 3151 3151 3152 3152 3152 3151 3151 3151 3151 3151 3151 3151 3151 3151 3150 3150 3150 3149 3149 3149 3150 3151 3150 3149 3152 3154 3152 3150 3148 3146 3145 3145 3144 3143 3142 3142 3141 3141 3142 3141 3140 3142 3143 3144 3145 3147 3148 3149 3150 3151 3151 3152 3154 3155 3157 3157 3157 3157
3147 3146 3147 3148 3148 3148 3148 3149 3150 3150 3151 3151 3150 3149 3150 3150 3150 3150 3150 3150 3150 3150 3151 3151 3151 3152 3152 3152 3152 3151 3150 3150 3151 3151 3151 3151 3150 3150 3150 3150 3150 3150 3150 3151 3150 3150 3150 3150 3149 3149 3149 3150 3149 3148 3149 3152 3152 3151 3149 3148 3147 3146 3146 3145 3143 3142 3141 3141 3141 3140 3140 3142 3144 3146 3146 3147 3148 3149 3150 3151 3151 3152 3153 3154 3154 3155 3155 3156
3144 3144 3145 3146 3146 3147 3148 3148 3149 3149 3150 3150 3149 3149 3150 3149 3149 3149 3149 3149 3149 3149 3150 3149 3149 3151 3151 3151 3150 3150 3149 3150 3150 3150 3150 3150 3150 3150 3150 3150 3149 3149 3150 3150 3150 3150 3150 3149 3149 3149 3149 3150 3149 3148 3148 3150 3151 3151 3150 3149 3147 3146 3146 3146 3144 3143 3143 3142 3142 3141 3141 3142 3144 3147 3148 3149 3150 3151 3151 3152 3152 3152 3153 3153 3153 3153 3153 3155
3142 3142 3142 3143 3144 3146 3146 3147 3147 3147 3148 3148 3147 3147 3148 3148 3148 3147 3147 3147 3148 3148 3148 3148 3148 3150 3150 3149 3149 3149 3150 3150 3150 3149 3150 3150 3149 3149 3149 3149 3149 3149 3150 3150 3149 3149 3149 3149 3149 3149 3149 3149 3149 3148 3147 3148 3150 3150 3149 3149 3147 3146 3145 3146 3145 3145 3145 3144 3143 3142 3143 3144 3146 3149 3150 3150 3151 3151 3152 3152 3152 3152 3153 3152 3152 3152 3152 3154
3140 3140 3140 3140 3141 3143 3144 3145 3145 3145 3145 3145 3144 3144 3145 3144 3145 3146 3145 3145 3145 3146 3146 3146 3147 3148 3149 3148 3148 3149 3149 3149 3149 3149 3149 3149 3149 3149 3149 3149 3149 3149 3149 3149 3149 3149 3149 3148 3148 3149 3149 3149 3149 3149 3148 3147 3149 3150 3150 3149 3149 3148 3147 3147 3146 3146 3146 3146 3145 3144 3145 3147 3148 3150 3150 3151 3151 3151 3151 3151 3152 3152 3152 3152 3152 3151 3151 3153